Location: Morlupo
(42.1333°N, 12.5000°E)
Time: 02:22:21
(UTC+00:00)

NOSS 3-2 (C) - Visible Passes

Search period start: 23 January 2021 00:00
Search period end: 02 February 2021 00:00
Orbit: 789 x 1424 km, 63.4° (Epoch: 09 January)

Date Brightness Start Highest point End Pass type
(mag) Time Alt. Az. Time Alt. Az. Time Alt. Az.
23 Jan 5.6 04:31:48 10° SSE 04:36:09 24° ESE 04:40:54 10° ENE visible
24 Jan 6.1 03:49:19 10° SE 03:51:56 13° ESE 03:54:40 10° ENE visible
24 Jan 3.3 05:36:03 10° SW 05:41:37 87° NW 05:48:01 10° NE visible
25 Jan 3.9 04:51:35 10° SSW 04:56:59 58° ESE 05:03:07 10° NE visible
26 Jan 4.8 04:07:36 10° S 04:12:31 34° ESE 04:17:58 10° NE visible
27 Jan 5.6 03:24:21 10° SSE 03:28:13 20° ESE 03:32:22 10° ENE visible
27 Jan 3.3 05:12:41 10° SW 05:18:15 66° NW 05:24:39 10° NNE visible
28 Jan 6.1 02:43:27 10° ESE 02:44:02 10° ESE 02:44:37 10° E visible
28 Jan 3.4 04:28:29 13° SSW 04:33:30 79° ESE 04:39:50 10° NE visible
29 Jan 4.1 03:46:28 29° S 03:48:57 47° ESE 03:54:52 10° NE visible
29 Jan 4.1 05:34:48 10° WSW 05:40:00 34° NW 05:45:55 10° NNE visible
30 Jan 4.9 03:04:06 27° ESE 03:04:33 27° ESE 03:09:35 10° NE visible
30 Jan 3.5 04:51:37 24° WSW 04:54:58 50° NW 05:01:15 10° NNE visible
31 Jan 5.8 02:21:32 15° E 02:21:32 15° E 02:23:37 10° ENE visible
31 Jan 3.2 04:09:01 60° WSW 04:10:06 79° NW 04:16:31 10° NE visible
01 Feb 3.8 03:26:14 58° E 03:26:14 58° E 03:31:39 10° NE visible
01 Feb 4.4 05:13:43 18° W 05:16:53 28° NW 05:22:27 10° NNE visible
